SM2GSR-2 Weather Reports


Display with metric or nautical units.
time (UTC)temp
F
wind
direction
speed
MPH
gust
MPH
rain 1hr
in
rain 24hr
in
rain mn
in
humidity
%
barometer
mb
20260903150005 57 79 0.0 0.0 0.00 0.31 0.03 76 994.7
20260903145004 57 79 0.0 0.0 0.00 0.31 0.03 78 994.8
20260903144504 56 79 0.0 0.0 0.00 0.31 0.03 82 994.7
20260903144004 55 79 0.0 0.0 0.00 0.31 0.03 82 994.8
20260903143504 56 79 0.0 0.0 0.00 0.31 0.03 81 994.7
20260903143005 57 79 0.0 0.0 0.00 0.31 0.03 76 994.8
20260903142504 56 79 0.0 1.0 0.00 0.31 0.03 78 994.8
20260903141004 56 79 0.0 0.0 0.00 0.33 0.03 77 994.8
20260903140505 56 79 0.0 0.0 0.00 0.34 0.03 79 994.7
20260903140003 55 79 0.0 0.0 0.00 0.35 0.03 77 994.8
20260903135504 55 79 0.0 3.0 0.00 0.35 0.03 77 994.8
20260903135004 56 79 0.0 0.0 0.00 0.35 0.03 75 994.8
20260903134504 57 79 0.0 0.0 0.00 0.35 0.03 76 994.8
20260903134004 56 79 0.0 2.0 0.00 0.35 0.03 80 994.8
20260903133504 56 79 2.0 3.0 0.00 0.35 0.03 79 994.8
20260903133004 56 79 1.0 3.0 0.00 0.35 0.03 81 994.8
20260903132504 56 77 0.0 0.0 0.00 0.36 0.03 81 994.8
20260903132004 55 77 0.0 2.0 0.00 0.36 0.03 81 994.9
20260903131504 55 78 0.0 2.0 0.00 0.36 0.03 80 995.0
20260903131004 55 78 1.0 3.0 0.00 0.36 0.03 81 994.9
20260903130504 55 78 0.0 0.0 0.00 0.36 0.03 80 995.0
20260903130004 55 78 0.0 0.0 0.00 0.37 0.03 82 995.0
20260903125503 55 78 0.0 0.0 0.00 0.37 0.03 82 995.0
20260903125004 55 78 0.0 0.0 0.00 0.37 0.03 81 995.0
20260903124504 55 78 0.0 0.0 0.00 0.37 0.03 83 995.0
20260903124004 55 78 1.0 2.0 0.00 0.37 0.03 82 995.0
20260903123504 54 78 0.0 0.0 0.00 0.37 0.03 83 995.0
20260903123004 54 78 0.0 0.0 0.00 0.37 0.03 83 995.0
20260903122004 53 78 0.0 0.0 0.00 0.37 0.03 85 995.0
20260903121004 52 74 0.0 0.0 0.00 0.37 0.03 84 994.9
20260903120504 52 74 0.0 0.0 0.00 0.37 0.03 85 994.9
20260903120004 52 74 0.0 0.0 0.00 0.37 0.03 85 994.9
20260903115504 52 77 0.0 0.0 0.00 0.37 0.03 84 994.9
20260903115004 53 82 0.0 0.0 0.00 0.37 0.03 83 994.9
20260903114504 53 93 0.0 1.0 0.00 0.37 0.03 83 994.9
20260903114004 54 94 0.0 0.0 0.00 0.37 0.03 83 994.9
20260903113004 54 94 1.0 5.0 0.00 0.37 0.03 85 994.9
20260903112504 54 146 1.0 5.0 0.00 0.37 0.03 85 994.9
20260903111004 54 154 1.0 2.0 0.00 0.37 0.03 87 994.9
20260903110504 53 171 1.0 3.0 0.00 0.37 0.03 89 994.8
20260903110004 53 239 1.0 3.0 0.00 0.37 0.03 89 994.8
20260903105504 52 245 2.0 3.0 0.00 0.37 0.03 90 994.8
20260903105004 51 246 0.0 3.0 0.00 0.37 0.03 90 994.8
20260903104005 50 246 0.0 0.0 0.00 0.37 0.03 89 994.9
20260903103505 50 246 0.0 0.0 0.00 0.37 0.03 89 995.0
20260903103004 50 246 0.0 0.0 0.00 0.37 0.03 89 995.0
20260903102504 50 246 0.0 0.0 0.00 0.37 0.03 89 995.0
20260903102004 50 246 0.0 0.0 0.00 0.37 0.03 89 994.9
20260903101504 50 246 0.0 0.0 0.00 0.37 0.03 89 994.9
20260903101004 49 246 0.0 0.0 0.00 0.37 0.03 89 994.9
20260903100504 49 246 0.0 0.0 0.00 0.37 0.03 89 994.8
20260903100004 49 246 0.0 0.0 0.00 0.37 0.03 89 994.8
20260903095504 49 246 0.0 0.0 0.00 0.37 0.03 89 994.8
20260903095004 49 246 0.0 0.0 0.00 0.37 0.03 89 994.7
20260903094004 49 246 0.0 0.0 0.00 0.37 0.03 90 994.7
20260903093504 49 246 0.0 0.0 0.00 0.37 0.03 90 994.6
20260903092515 49 246 0.0 0.0 0.00 0.37 0.03 89 994.6
20260903092015 49 246 0.0 0.0 0.00 0.37 0.03 89 994.6
20260903091004 49 246 0.0 0.0 0.00 0.37 0.03 89 994.6
20260903090504 49 246 0.0 0.0 0.00 0.37 0.03 89 994.6
20260903090004 49 246 0.0 0.0 0.00 0.37 0.03 89 994.5
20260903085504 48 246 0.0 0.0 0.00 0.37 0.03 89 994.5
20260903085005 48 246 0.0 0.0 0.00 0.37 0.03 88 994.5
20260903084504 48 246 0.0 0.0 0.00 0.37 0.03 87 994.5
20260903084004 48 246 0.0 0.0 0.00 0.37 0.03 87 994.5
20260903083504 48 246 0.0 0.0 0.00 0.37 0.03 86 994.5
20260903083004 48 246 0.0 0.0 0.00 0.37 0.03 86 994.4
20260903082504 48 246 0.0 0.0 0.00 0.37 0.03 85 994.4
20260903082004 48 246 0.0 0.0 0.00 0.37 0.03 83 994.4
20260903081504 48 246 0.0 0.0 0.00 0.37 0.03 82 994.4
20260903081004 48 246 0.0 0.0 0.00 0.37 0.03 82 994.4
20260903075504 48 246 0.0 0.0 0.00 0.37 0.03 81 994.3
20260903075005 47 246 0.0 0.0 0.00 0.37 0.03 81 994.3
20260903074505 47 246 0.0 0.0 0.00 0.37 0.03 80 994.3
20260903074004 47 246 0.0 0.0 0.00 0.37 0.03 80 994.2
20260903073504 47 246 0.0 3.0 0.00 0.37 0.03 80 994.2
20260903073004 47 246 0.0 0.0 0.00 0.37 0.03 80 994.3
20260903072504 47 246 0.0 0.0 0.00 0.37 0.03 79 994.3
20260903072005 47 246 0.0 0.0 0.00 0.37 0.03 79 994.3
20260903071504 47 246 0.0 0.0 0.00 0.37 0.03 79 994.3
20260903071004 47 246 0.0 0.0 0.00 0.37 0.03 79 994.3
20260903070504 47 246 0.0 3.0 0.00 0.37 0.03 79 994.4
20260903070004 47 246 0.0 0.0 0.00 0.37 0.03 79 994.3
20260903065503 47 246 0.0 0.0 0.00 0.37 0.03 79 994.3
20260903065004 47 246 0.0 3.0 0.00 0.37 0.03 79 994.3
20260903064504 47 246 0.0 0.0 0.00 0.37 0.03 79 994.3
20260903064004 47 246 0.0 0.0 0.00 0.37 0.03 79 994.3
20260903063504 47 246 0.0 0.0 0.00 0.37 0.03 79 994.3
20260903063004 46 246 0.0 0.0 0.00 0.37 0.03 79 994.3
20260903062004 47 246 2.0 3.0 0.00 0.37 0.03 78 994.3
20260903061504 47 246 1.0 3.0 0.00 0.37 0.03 78 994.3
20260903061004 47 246 0.0 0.0 0.00 0.37 0.03 78 994.3
20260903060504 47 246 0.0 0.0 0.00 0.37 0.03 78 994.4
20260903060004 47 246 0.0 0.0 0.00 0.37 0.03 78 994.4
20260903055004 47 246 0.0 0.0 0.00 0.37 0.03 78 994.3
20260903054504 47 246 0.0 0.0 0.00 0.37 0.03 78 994.2
20260903053504 46 246 0.0 0.0 0.00 0.37 0.03 78 994.2
20260903053004 46 246 0.0 0.0 0.00 0.37 0.03 78 994.1
20260903052504 46 246 0.0 1.0 0.00 0.37 0.03 78 994.1
20260903052004 45 246 0.0 0.0 0.00 0.37 0.03 78 994.0
20260903051504 45 246 0.0 0.0 0.00 0.37 0.03 78 994.0
20260903050504 44 246 0.0 0.0 0.00 0.37 0.03 79 993.9
20260903045004 42 246 0.0 0.0 0.00 0.37 0.03 82 993.6
20260903044004 41 246 0.0 0.0 0.00 0.37 0.03 84 993.6
20260903043504 40 246 0.0 0.0 0.00 0.37 0.03 84 993.7
20260903042504 41 246 0.0 0.0 0.00 0.37 0.03 84 993.6
20260903042004 41 246 0.0 0.0 0.00 0.37 0.03 84 993.6
20260903041504 40 246 0.0 0.0 0.00 0.37 0.03 85 993.7
20260903041004 40 246 0.0 0.0 0.00 0.37 0.03 86 993.7
20260903040004 41 246 0.0 0.0 0.00 0.37 0.03 86 993.7
20260903035004 41 246 0.0 0.0 0.00 0.37 0.03 86 993.6
20260903034504 41 246 0.0 0.0 0.00 0.37 0.03 85 993.5
20260903034004 41 246 0.0 0.0 0.00 0.37 0.03 85 993.6
20260903033504 42 246 0.0 0.0 0.00 0.37 0.03 85 993.6
20260903032004 42 246 0.0 0.0 0.00 0.37 0.03 85 993.8
20260903031504 42 246 0.0 0.0 0.00 0.37 0.03 85 993.8
20260903030504 42 246 0.0 0.0 0.00 0.37 0.03 84 994.0
20260903025504 42 246 0.0 0.0 0.00 0.37 0.03 85 994.0
20260903025004 42 246 0.0 0.0 0.00 0.37 0.03 86 994.1
20260903024504 42 246 0.0 0.0 0.00 0.37 0.03 86 994.1
20260903023504 42 246 0.0 0.0 0.00 0.37 0.03 87 994.2
20260903023004 42 246 0.0 0.0 0.00 0.37 0.03 87 994.2
20260903022504 42 246 0.0 0.0 0.00 0.37 0.03 87 994.2
20260903021504 43 246 0.0 0.0 0.00 0.37 0.03 87 994.2
20260903021004 43 246 0.0 0.0 0.00 0.37 0.03 87 994.2
20260903020504 44 246 0.0 0.0 0.00 0.37 0.03 87 994.2
20260903015504 44 246 0.0 0.0 0.00 0.37 0.03 86 994.1
20260903015004 45 246 0.0 0.0 0.00 0.37 0.03 86 994.2
20260903014505 45 246 0.0 0.0 0.00 0.37 0.03 86 994.2
20260903014004 45 246 0.0 0.0 0.00 0.37 0.03 86 994.1
20260903013504 45 246 0.0 0.0 0.00 0.37 0.03 86 994.1
20260903013004 46 246 0.0 0.0 0.00 0.37 0.03 86 994.1
20260903012504 46 246 0.0 0.0 0.00 0.37 0.03 85 994.1
20260903010505 47 246 0.0 0.0 0.00 0.37 0.03 83 994.0
20260903010004 48 246 0.0 0.0 0.00 0.37 0.03 83 994.0
20260903005005 48 246 0.0 0.0 0.00 0.37 0.03 82 994.1
20260903004504 48 246 0.0 0.0 0.00 0.38 0.03 82 994.1
20260903003504 48 246 0.0 0.0 0.00 0.38 0.03 81 994.1
20260903003004 48 246 0.0 0.0 0.00 0.38 0.03 81 994.1
20260903002504 48 246 1.0 3.0 0.00 0.38 0.03 81 994.0
20260903002004 47 247 0.0 0.0 0.00 0.38 0.03 83 994.0
20260903001504 46 247 0.0 0.0 0.00 0.38 0.03 84 993.9
20260903000504 46 247 0.0 0.0 0.00 0.38 0.03 86 994.0
20260903000004 46 247 0.0 0.0 0.00 0.38 0.03 87 994.0
20260902235504 46 247 0.0 0.0 0.00 0.38 0.03 87 993.9
20260902235005 46 247 0.0 0.0 0.00 0.38 0.03 86 993.9
20260902234504 46 247 0.0 0.0 0.00 0.38 0.03 86 993.8
20260902234004 46 247 0.0 0.0 0.00 0.38 0.03 87 993.8
20260902233505 47 247 0.0 0.0 0.01 0.38 0.03 88 993.8
20260902233004 47 247 0.0 0.0 0.01 0.38 0.03 87 993.8
20260902232504 48 247 0.0 0.0 0.01 0.38 0.03 87 993.8
20260902232004 48 247 0.0 0.0 0.02 0.38 0.03 87 993.8
20260902230504 50 247 0.0 0.0 0.03 0.38 0.03 86 993.9
20260902230004 50 247 0.0 0.0 0.03 0.38 0.03 84 994.0
20260902225504 50 247 0.0 0.0 0.03 0.38 0.03 84 994.1
20260902225004 50 247 0.0 0.0 0.04 0.38 0.03 83 994.3
20260902224504 51 247 0.0 0.0 0.06 0.38 0.03 83 994.3
20260902224004 50 247 0.0 2.0 0.11 0.38 0.03 83 994.4
20260902223504 50 248 0.0 0.0 0.14 0.37 0.02 83 994.6
20260902222005 51 248 0.0 0.0 0.17 0.36 0.01 83 994.7
20260902221504 51 248 0.0 0.0 0.17 0.36 0.01 83 994.8
20260902221004 50 248 0.0 0.0 0.16 0.35 0.00 83 994.9
20260902220504 51 248 0.0 0.0 0.16 0.35 0.00 83 995.1
20260902215005 51 248 0.0 0.0 0.16 0.35 0.35 83 994.8
20260902214504 50 248 0.0 0.0 0.14 0.33 0.33 83 995.0
20260902214004 50 248 0.0 0.0 0.09 0.28 0.28 84 995.1
20260902213004 50 248 0.0 0.0 0.01 0.20 0.20 84 995.1
20260902212503 50 248 0.0 0.0 0.00 0.19 0.19 85 995.0
20260902212004 50 248 0.0 0.0 0.00 0.19 0.19 85 994.8
20260902211504 50 248 0.0 0.0 0.00 0.19 0.19 84 994.8
20260902211004 50 248 0.0 0.0 0.00 0.19 0.19 84 994.8
20260902210504 50 248 0.0 0.0 0.00 0.19 0.19 84 994.9
20260902205504 50 248 0.0 0.0 0.00 0.19 0.19 85 994.9
20260902204504 50 248 0.0 0.0 0.00 0.19 0.19 86 995.0
20260902204004 50 248 0.0 0.0 0.00 0.19 0.19 86 995.1
20260902203004 50 248 0.0 0.0 0.04 0.19 0.19 86 995.1
20260902202504 50 248 0.0 0.0 0.11 0.19 0.19 86 995.1
20260902202004 50 248 0.0 0.0 0.12 0.19 0.19 86 995.2
20260902201004 51 248 0.0 0.0 0.12 0.19 0.19 86 995.2
20260902200504 51 248 0.0 0.0 0.12 0.19 0.19 86 995.2
20260902200004 51 248 0.0 0.0 0.12 0.19 0.19 86 995.2
20260902195504 51 248 0.0 0.0 0.12 0.19 0.19 86 995.3
20260902194504 51 248 0.0 0.0 0.12 0.19 0.19 86 995.3
20260902194004 51 248 0.0 0.0 0.12 0.19 0.19 85 995.3
20260902193504 51 248 0.0 3.0 0.12 0.19 0.19 85 995.3
20260902192504 52 220 0.0 1.0 0.01 0.08 0.08 83 995.6
20260902192004 52 220 1.0 3.0 0.00 0.07 0.07 82 995.8
20260902191504 52 217 0.0 0.0 0.00 0.07 0.07 81 995.7
20260902190504 51 217 0.0 0.0 0.00 0.07 0.07 82 995.9
20260902190004 50 123 0.0 0.0 0.00 0.07 0.07 85 996.0
20260902185004 49 111 0.0 0.0 0.00 0.07 0.07 86 995.7
20260902184004 50 111 0.0 0.0 0.00 0.07 0.07 87 995.7
20260902183504 50 111 0.0 0.0 0.00 0.07 0.07 87 995.6
20260902182504 50 111 0.0 0.0 0.00 0.07 0.07 87 995.6
20260902182005 50 111 0.0 0.0 0.00 0.07 0.07 87 995.5
20260902181504 50 111 0.0 0.0 0.00 0.07 0.07 88 995.5
20260902180504 50 111 0.0 0.0 0.00 0.07 0.07 88 995.7
20260902180006 51 111 0.0 0.0 0.00 0.07 0.07 89 995.7
20260902175004 51 111 0.0 0.0 0.00 0.07 0.07 88 995.7
20260902174504 52 111 0.0 0.0 0.00 0.07 0.07 88 995.7
20260902174004 52 111 0.0 0.0 0.00 0.07 0.07 88 995.7
20260902173504 52 111 0.0 0.0 0.00 0.07 0.07 88 995.8
20260902172504 53 111 0.0 0.0 0.00 0.07 0.07 88 995.9
20260902171505 54 111 0.0 0.0 0.00 0.07 0.07 88 995.8
20260902171004 54 111 0.0 0.0 0.00 0.07 0.07 88 995.9
20260902170504 54 111 0.0 0.0 0.00 0.07 0.07 88 995.9
20260902170004 54 111 0.0 0.0 0.00 0.07 0.07 88 995.9
20260902165504 55 111 0.0 0.0 0.00 0.07 0.07 88 995.9
20260902165004 55 111 0.0 0.0 0.00 0.07 0.07 88 996.0
20260902164504 55 111 0.0 0.0 0.00 0.07 0.07 88 996.0
20260902164004 55 111 0.0 0.0 0.00 0.07 0.07 89 996.0
20260902163504 56 111 0.0 0.0 0.00 0.07 0.07 88 996.0
20260902163004 56 111 0.0 0.0 0.00 0.07 0.07 88 996.0
20260902162504 56 111 0.0 0.0 0.00 0.07 0.07 88 996.0
20260902161504 56 112 0.0 3.0 0.00 0.07 0.07 88 996.1
20260902160504 57 112 0.0 0.0 0.00 0.07 0.07 88 996.1
20260902160005 57 112 0.0 0.0 0.00 0.07 0.07 88 996.1
20260902155504 57 112 0.0 3.0 0.00 0.07 0.07 88 996.2
20260902155005 57 112 2.0 5.0 0.00 0.07 0.07 88 996.2
20260902154504 57 138 0.0 3.0 0.00 0.07 0.07 88 996.3
20260902153504 57 152 1.0 3.0 0.00 0.07 0.07 88 996.4
20260902153004 57 188 0.0 0.0 0.00 0.07 0.07 88 996.5
20260902151504 57 200 0.0 2.0 0.01 0.07 0.07 88 996.7
20260902151004 57 211 1.0 3.0 0.02 0.07 0.07 87 996.6
20260902150504 57 215 0.0 0.0 0.03 0.07 0.07 87 996.8